Change the Weather History Date:

Sunday, March 25, 2012

  Actual Average Record
Temperature  
Mean Temperature 42 °F 36 °F  
Max Temperature 55 °F 47 °F 73 °F (1999)
Min Temperature 28 °F 25 °F -20 °F (1996)
Degree Days  
Heating Degree Days 23 29  
Month to date heating degree days 671 825  
Since 1 July heating degree days 5994 6629  
Cooling Degree Days 0 0  
Month to date cooling degree days 0 0  
Year to date cooling degree days 0 0  
Moisture  
Dew Point 31 °F    
Average Humidity 69    
Maximum Humidity 92    
Minimum Humidity 46    
Precipitation  
Precipitation 0.00 in 0.04 in 1.25 in (1995)
Month to date precipitation 0.64 0.73  
Year to date precipitation 1.67 1.74  
Snow  
Snow 0.00 in - - ()
Snow Depth 0.00 in    
Sea Level Pressure  
Sea Level Pressure 29.94 in    
Wind  
Wind Speed 9 mph (ESE)    
Max Wind Speed 20 mph    
Max Gust Speed 25 mph    
Visibility 10 miles    
Events      
T = Trace of Precipitation, MM = Missing Value Source: NWS Daily Summary

Daily Weather History Graph

Daily Weather History Graph

Search for Another Location

Airport or City:

Trip Planner

Search our weather history database for the weather conditions in past years. The results will help you decide how hot, cold, wet, or windy it might be!

Date:

Astronomy

Mar. 25, 2012 Rise Set
Actual Time 7:09 AM MDT 7:38 PM MDT
Civil Twilight 6:39 AM MDT 8:08 PM MDT
Nautical Twilight 6:03 AM MDT 8:45 PM MDT
Astronomical Twilight 5:25 AM MDT 9:22 PM MDT
Moon 8:09 AM MDT (3/25) 11:13 PM MDT (3/25)
Length of Visible Light 13h 29m
Length of Day
12h 28m
Waxing Crescent, 9% of the Moon is Illuminated
Mar 25
Waxing Crescent
Mar 30
First Quarter
Apr 6
Full
Apr 13
Last Quarter
Apr 21
New

Hourly Weather History & Observations

Time (MDT) Temp. Windchill Dew Point Humidity Pressure Visibility Wind Dir Wind Speed Gust Speed Precip Events Conditions
12:50 AM 30.2 °F 25.4 °F 28.4 °F 93% 30.03 in 10.0 mi ESE 4.6 mph - N/A   Scattered Clouds
12:54 AM 30.0 °F 25.2 °F 28.0 °F 92% 30.10 in 10.0 mi ESE 4.6 mph - N/A   Partly Cloudy
1:23 AM 30.2 °F 26.7 °F 28.4 °F 93% 30.03 in 10.0 mi ESE 3.5 mph - N/A   Mostly Cloudy
1:54 AM 33.1 °F 30.0 °F 28.9 °F 85% 30.09 in 10.0 mi ESE 3.5 mph - N/A   Overcast
2:54 AM 30.9 °F 22.2 °F 28.0 °F 89% 30.06 in 10.0 mi East 10.4 mph - N/A   Overcast
3:37 AM 28.4 °F 22.2 °F 26.6 °F 93% 29.99 in 10.0 mi SE 5.8 mph - N/A   Scattered Clouds
3:54 AM 28.9 °F 21.9 °F 27.0 °F 92% 30.04 in 10.0 mi ESE 6.9 mph - N/A   Clear
4:32 AM 30.2 °F 22.6 °F 28.4 °F 93% 29.98 in 10.0 mi SE 8.1 mph - N/A   Mostly Cloudy
4:42 AM 30.2 °F 24.3 °F 26.6 °F 86% 29.98 in 10.0 mi SE 5.8 mph - N/A   Scattered Clouds
4:54 AM 30.0 °F 23.2 °F 28.0 °F 92% 30.04 in 10.0 mi ESE 6.9 mph - N/A   Partly Cloudy
5:54 AM 28.9 °F 21.9 °F 27.0 °F 92% 30.05 in 10.0 mi SE 6.9 mph - N/A   Clear
6:54 AM 28.9 °F 23.9 °F 27.0 °F 92% 30.05 in 10.0 mi SE 4.6 mph - N/A   Clear
7:54 AM 28.0 °F 24.2 °F 27.0 °F 96% 30.06 in 10.0 mi ESE 3.5 mph - N/A   Clear
8:54 AM 33.1 °F - 30.0 °F 89% 30.04 in 10.0 mi Calm Calm - N/A   Clear
9:54 AM 37.9 °F - 30.0 °F 73% 30.01 in 10.0 mi Calm Calm - N/A   Clear
10:54 AM 42.1 °F 40.2 °F 30.9 °F 65% 29.98 in 10.0 mi North 3.5 mph - N/A   Clear
11:54 AM 44.1 °F 39.0 °F 30.9 °F 60% 29.96 in 10.0 mi East 9.2 mph - N/A   Clear
12:54 PM 46.0 °F 40.6 °F 32.0 °F 58% 29.94 in 10.0 mi East 11.5 mph - N/A   Clear
1:54 PM 48.9 °F - 33.1 °F 54% 29.90 in 10.0 mi ESE 13.8 mph - N/A   Clear
2:54 PM 50.0 °F - 33.1 °F 52% 29.88 in 10.0 mi East 12.7 mph - N/A   Clear
3:54 PM 52.0 °F - 34.0 °F 50% 29.85 in 10.0 mi East 15.0 mph - N/A   Clear
4:54 PM 54.0 °F - 34.0 °F 47% 29.82 in 10.0 mi East 17.3 mph 23.0 mph N/A   Clear
5:54 PM 50.0 °F - 34.0 °F 54% 29.81 in 10.0 mi East 13.8 mph 23.0 mph N/A   Clear
6:54 PM 48.0 °F - 34.0 °F 58% 29.81 in 10.0 mi ESE 16.1 mph - N/A   Clear
7:54 PM 46.0 °F 41.0 °F 34.0 °F 63% 29.81 in 10.0 mi ESE 10.4 mph - N/A   Clear
8:54 PM 46.0 °F 40.2 °F 34.0 °F 63% 29.78 in 10.0 mi East 12.7 mph - N/A   Clear
9:54 PM 46.0 °F 40.6 °F 34.0 °F 63% 29.76 in 10.0 mi East 11.5 mph - N/A   Clear
10:54 PM 46.0 °F 41.9 °F 34.0 °F 63% 29.73 in 10.0 mi East 8.1 mph - N/A   Clear
11:54 PM 45.0 °F 40.1 °F 34.0 °F 65% 29.69 in 10.0 mi ESE 9.2 mph - N/A   Clear